DW9313 Weather Reports


Display with metric or nautical units.
time (UTC)temp
F
wind
direction
speed
MPH
gust
MPH
rain 1hr
in
rain 24hr
in
rain mn
in
humidity
%
barometer
mb
20260507072754 54 151 3.0 7.0 0.00 0.00 0.00 75 1012.2
20260507072254 54 176 3.0 7.0 0.00 0.00 0.00 77 1012.1
20260507071754 53 152 3.0 7.0 0.00 0.00 0.00 78 1012.1
20260507071254 52 161 3.0 7.0 0.00 0.00 0.00 77 1012.2
20260507070755 52 179 4.0 8.0 0.00 0.00 0.00 77 1012.1
20260507070255 52 135 3.0 7.0 0.00 0.00 0.00 79 1012.1
20260507065756 52 150 4.0 8.0 0.00 0.00 0.00 80 1012.1
20260507065254 52 126 5.0 8.0 0.00 0.00 0.00 81 1012.1
20260507064254 52 111 1.0 2.0 0.00 0.00 0.00 82 1012.3
20260507063256 52 128 0.0 2.0 0.00 0.00 0.00 82 1012.3
20260507062755 51 98 0.0 1.0 0.00 0.00 0.00 82 1012.4
20260507062255 51 98 0.0 1.0 0.00 0.00 0.00 83 1012.4
20260507061755 50 98 0.0 0.0 0.00 0.00 0.00 86 1012.4
20260507061256 49 98 0.0 0.0 0.00 0.00 0.00 87 1012.4
20260507060755 48 98 0.0 0.0 0.00 0.00 0.00 89 1012.4
20260507060254 47 98 0.0 0.0 0.00 0.00 0.00 90 1012.4
20260507055755 47 98 0.0 0.0 0.00 0.00 0.00 92 1012.4
20260507054756 44 99 0.0 0.0 0.00 0.00 0.00 93 1012.4
20260507053755 43 99 0.0 1.0 0.00 0.00 0.00 92 1012.3
20260507053255 42 105 0.0 1.0 0.00 0.00 0.00 92 1012.3
20260507052756 42 13 0.0 0.0 0.00 0.00 0.00 92 1012.3
20260507051756 42 359 0.0 0.0 0.00 0.00 0.00 92 1012.3
20260507051256 42 359 0.0 0.0 0.00 0.00 0.00 92 1012.3
20260507050755 42 359 0.0 0.0 0.00 0.00 0.00 91 1012.3
20260507050255 42 359 0.0 0.0 0.00 0.00 0.00 91 1012.3
20260507045757 42 359 0.0 0.0 0.00 0.00 0.00 91 1012.2
20260507045257 42 359 0.0 0.0 0.00 0.00 0.00 91 1012.2
20260507044758 43 359 0.0 0.0 0.00 0.00 0.00 91 1012.3
20260507044256 43 359 0.0 0.0 0.00 0.00 0.00 91 1012.2
20260507043756 43 359 0.0 0.0 0.00 0.00 0.00 91 1012.3
20260507043255 43 359 0.0 0.0 0.00 0.00 0.00 92 1012.2
20260507042755 43 359 0.0 0.0 0.00 0.00 0.00 91 1012.2
20260507042256 43 359 0.0 0.0 0.00 0.00 0.00 91 1012.3
20260507041757 43 359 0.0 0.0 0.00 0.00 0.00 91 1012.2
20260507041255 43 359 0.0 0.0 0.00 0.00 0.00 91 1012.2
20260507040757 43 359 0.0 0.0 0.00 0.00 0.00 91 1012.2
20260507040256 43 359 0.0 0.0 0.00 0.00 0.00 90 1012.2
20260507035756 44 359 0.0 0.0 0.00 0.00 0.00 90 1012.2
20260507035256 44 359 0.0 0.0 0.00 0.00 0.00 90 1012.3
20260507034757 44 359 0.0 0.0 0.00 0.00 0.00 90 1012.3
20260507034258 44 359 0.0 0.0 0.00 0.00 0.00 90 1012.3
20260507033756 45 359 0.0 0.0 0.00 0.00 0.00 90 1012.3
20260507033256 45 359 0.0 0.0 0.00 0.00 0.00 90 1012.3
20260507032258 45 359 0.0 0.0 0.00 0.00 0.00 90 1012.3
20260507031756 45 342 0.0 0.0 0.00 0.00 0.00 90 1012.3
20260507030757 46 342 0.0 0.0 0.00 0.00 0.00 89 1012.4
20260507030257 46 342 0.0 0.0 0.00 0.00 0.00 89 1012.4
20260507025758 46 342 0.0 0.0 0.00 0.00 0.00 89 1012.4
20260507025257 46 342 0.0 0.0 0.00 0.00 0.00 88 1012.4
20260507024756 46 342 0.0 0.0 0.00 0.00 0.00 88 1012.4
20260507024258 47 342 0.0 0.0 0.00 0.00 0.00 88 1012.4
20260507023757 47 342 0.0 0.0 0.00 0.00 0.00 87 1012.4
20260507023257 47 342 0.0 0.0 0.00 0.00 0.00 87 1012.4
20260507022756 47 342 0.0 0.0 0.00 0.00 0.00 87 1012.4
20260507022257 48 342 0.0 0.0 0.00 0.00 0.00 87 1012.4
20260507021757 48 342 0.0 0.0 0.00 0.00 0.00 87 1012.4
20260507020757 48 342 0.0 0.0 0.00 0.00 0.00 86 1012.4
20260507020257 48 342 0.0 0.0 0.00 0.00 0.00 86 1012.4
20260507015257 49 342 0.0 0.0 0.00 0.00 0.00 86 1012.5
20260507014258 49 342 0.0 0.0 0.00 0.00 0.00 86 1012.5
20260507013757 49 342 0.0 0.0 0.00 0.00 0.00 86 1012.5
20260507013258 49 342 0.0 0.0 0.00 0.00 0.00 86 1012.5
20260507012257 49 342 0.0 0.0 0.00 0.00 0.00 87 1012.5
20260507011757 49 342 0.0 0.0 0.00 0.00 0.00 87 1012.5
20260507010758 49 342 0.0 0.0 0.00 0.00 0.00 87 1012.6
20260507005758 49 342 0.0 0.0 0.00 0.00 0.00 87 1012.6
20260507005305 49 342 0.0 0.0 0.00 0.00 0.00 86 1012.7
20260507004804 49 342 0.0 0.0 0.00 0.00 0.00 86 1012.7
20260507004305 49 342 0.0 0.0 0.00 0.00 0.00 86 1012.7
20260507003757 49 342 0.0 0.0 0.00 0.00 0.00 86 1012.8
20260507003259 49 342 0.0 0.0 0.00 0.00 0.00 86 1012.8
20260507002757 49 342 0.0 0.0 0.00 0.00 0.00 85 1012.8
20260507002259 49 342 0.0 0.0 0.00 0.00 0.00 85 1012.8
20260507001758 49 342 0.0 0.0 0.00 0.00 0.00 85 1012.8
20260507001257 50 342 0.0 0.0 0.00 0.00 0.00 85 1012.9
20260507000759 49 342 0.0 0.0 0.00 0.00 0.00 85 1012.9
20260507000259 50 342 0.0 0.0 0.00 0.00 0.00 85 1012.9
20260506235758 50 342 0.0 0.0 0.00 0.00 0.00 85 1012.9
20260506235300 50 342 0.0 1.0 0.00 0.00 0.00 85 1013.0
20260506234758 50 338 0.0 0.0 0.00 0.00 0.00 85 1013.0
20260506234259 50 338 0.0 0.0 0.00 0.00 0.00 85 1013.0
20260506233758 50 338 0.0 0.0 0.00 0.00 0.00 85 1013.1
20260506233258 50 338 0.0 0.0 0.00 0.00 0.00 85 1013.1
20260506232758 49 338 0.0 0.0 0.00 0.00 0.00 86 1013.1
20260506232258 50 338 0.0 0.0 0.00 0.00 0.00 86 1013.0
20260506231758 50 338 0.0 0.0 0.00 0.00 0.00 86 1013.1
20260506230815 50 338 0.0 0.0 0.00 0.00 0.00 85 1013.1
20260506225758 50 338 0.0 0.0 0.00 0.00 0.00 85 1013.1
20260506225300 50 336 0.0 0.0 0.00 0.00 0.00 85 1013.2
20260506224300 50 336 0.0 0.0 0.00 0.00 0.00 85 1013.1
20260506223800 50 336 0.0 0.0 0.00 0.00 0.00 84 1013.1
20260506223259 50 336 0.0 0.0 0.00 0.00 0.00 84 1013.1
20260506222259 50 356 0.0 0.0 0.00 0.00 0.00 84 1013.1
20260506221759 50 356 0.0 0.0 0.00 0.00 0.00 84 1013.1
20260506221258 50 356 0.0 0.0 0.00 0.00 0.00 84 1013.1
20260506220259 50 356 0.0 0.0 0.00 0.00 0.00 84 1013.1
20260506215759 50 356 0.0 0.0 0.00 0.00 0.00 84 1013.1
20260506214259 50 342 0.0 0.0 0.00 0.00 0.00 83 1013.1
20260506213758 50 342 0.0 0.0 0.00 0.00 0.00 83 1013.2
20260506213259 51 342 0.0 1.0 0.00 0.00 0.00 83 1013.2
20260506212759 51 346 0.0 0.0 0.00 0.00 0.00 83 1013.2
20260506212300 51 346 0.0 1.0 0.00 0.00 0.00 83 1013.2
20260506211800 51 345 0.0 1.0 0.00 0.00 0.00 83 1013.2
20260506211259 51 326 0.0 1.0 0.00 0.00 0.00 83 1013.2
20260506210300 51 326 0.0 1.0 0.00 0.00 0.00 82 1013.2
20260506205800 51 232 0.0 1.0 0.00 0.00 0.00 82 1013.3
20260506205259 51 226 0.0 0.0 0.00 0.00 0.00 82 1013.3
20260506204801 51 178 0.0 1.0 0.00 0.00 0.00 82 1013.3
20260506204300 51 159 0.0 0.0 0.00 0.00 0.00 82 1013.3
20260506203801 51 159 0.0 0.0 0.00 0.00 0.00 82 1013.2
20260506203300 51 159 0.0 0.0 0.00 0.00 0.00 82 1013.2
20260506202759 51 150 0.0 0.0 0.00 0.00 0.00 82 1013.2
20260506202259 51 216 0.0 1.0 0.00 0.00 0.00 82 1013.2
20260506201300 52 145 0.0 1.0 0.00 0.00 0.00 82 1013.2
20260506200801 52 24 0.0 1.0 0.00 0.00 0.00 82 1013.2
20260506200301 52 189 0.0 0.0 0.00 0.00 0.00 82 1013.1
20260506195800 52 302 0.0 1.0 0.00 0.00 0.00 81 1013.1
20260506195300 52 314 0.0 0.0 0.00 0.00 0.00 81 1013.2
20260506194301 52 337 0.0 1.0 0.00 0.00 0.00 80 1013.2
20260506193800 52 312 0.0 1.0 0.00 0.00 0.00 80 1013.2
20260506193300 52 327 0.0 2.0 0.00 0.00 0.00 80 1013.1
20260506192801 52 324 0.0 1.0 0.00 0.00 0.00 80 1013.1
20260506192300 52 338 0.0 1.0 0.00 0.00 0.00 80 1013.1
20260506191800 53 292 0.0 1.0 0.00 0.00 0.00 80 1013.1
20260506191300 53 34 0.0 1.0 0.00 0.00 0.00 79 1013.1
20260506190301 53 320 0.0 2.0 0.00 0.00 0.00 79 1013.1
20260506185301 53 203 0.0 1.0 0.00 0.00 0.00 79 1013.1
20260506184800 53 228 0.0 1.0 0.00 0.00 0.00 79 1013.1
20260506183800 53 165 0.0 1.0 0.00 0.00 0.00 78 1013.1
20260506183302 53 179 0.0 2.0 0.00 0.00 0.00 78 1013.1
20260506182800 53 230 0.0 1.0 0.00 0.00 0.00 78 1013.1
20260506182301 53 343 1.0 3.0 0.00 0.00 0.00 77 1013.1
20260506181802 54 310 1.0 3.0 0.00 0.00 0.00 77 1013.1
20260506181303 54 25 1.0 3.0 0.00 0.00 0.00 77 1013.0
20260506180800 54 226 0.0 2.0 0.00 0.00 0.00 77 1013.1
20260506180301 54 332 0.0 1.0 0.00 0.00 0.00 77 1013.1
20260506175802 54 207 0.0 2.0 0.00 0.00 0.00 77 1013.1
20260506175301 54 119 0.0 3.0 0.00 0.00 0.00 76 1013.1
20260506174301 54 321 0.0 1.0 0.00 0.00 0.00 76 1013.1
20260506173801 54 275 1.0 6.0 0.00 0.00 0.00 77 1013.1
20260506173301 54 190 2.0 6.0 0.00 0.00 0.00 76 1013.1
20260506172803 54 200 1.0 6.0 0.00 0.00 0.00 76 1013.1
20260506172301 54 269 0.0 5.0 0.00 0.00 0.00 76 1013.2
20260506171801 54 70 0.0 3.0 0.00 0.00 0.00 76 1013.2
20260506171301 54 165 0.0 2.0 0.00 0.00 0.00 76 1013.3
20260506170302 55 305 1.0 3.0 0.00 0.00 0.00 76 1013.2
20260506165802 54 66 1.0 3.0 0.00 0.00 0.00 76 1013.3
20260506165305 55 337 0.0 2.0 0.00 0.00 0.00 76 1013.3
20260506164301 54 44 0.0 2.0 0.00 0.00 0.00 76 1013.4
20260506162301 55 22 1.0 5.0 0.00 0.00 0.00 75 1013.5
20260506161302 55 327 1.0 2.0 0.00 0.00 0.00 75 1013.6
20260506160802 54 307 1.0 5.0 0.00 0.00 0.00 75 1013.7
20260506160302 54 2 1.0 5.0 0.00 0.00 0.00 75 1013.7
20260506155802 54 318 3.0 6.0 0.00 0.00 0.00 75 1013.7
20260506155305 55 319 0.0 6.0 0.00 0.00 0.00 75 1013.8
20260506154801 55 339 1.0 5.0 0.00 0.00 0.00 75 1013.8
20260506154301 55 317 1.0 6.0 0.00 0.00 0.00 75 1013.8
20260506153802 55 285 1.0 5.0 0.00 0.00 0.00 74 1013.8
20260506153302 55 307 1.0 5.0 0.00 0.00 0.00 73 1013.8
20260506152802 56 242 1.0 5.0 0.00 0.00 0.00 73 1013.8
20260506151802 56 308 2.0 6.0 0.00 0.00 0.00 73 1014.0
20260506151301 57 347 1.0 3.0 0.00 0.00 0.00 73 1013.9
20260506150802 57 286 1.0 6.0 0.00 0.00 0.00 74 1013.9
20260506150304 57 339 1.0 5.0 0.00 0.00 0.00 74 1013.9
20260506145803 56 325 2.0 6.0 0.00 0.00 0.00 75 1013.9
20260506145305 56 153 3.0 6.0 0.00 0.00 0.00 74 1013.9
20260506144302 57 136 3.0 7.0 0.00 0.00 0.00 73 1013.9
20260506143803 57 182 1.0 6.0 0.00 0.00 0.00 72 1013.9
20260506143302 57 210 3.0 9.0 0.00 0.00 0.00 73 1013.8
20260506142802 57 233 1.0 2.0 0.00 0.00 0.00 73 1013.9
20260506141802 56 145 1.0 5.0 0.00 0.00 0.00 73 1014.0
20260506141302 55 179 2.0 6.0 0.00 0.00 0.00 74 1014.0
20260506140803 55 141 4.0 7.0 0.00 0.00 0.00 74 1014.0
20260506134803 55 253 1.0 5.0 0.00 0.00 0.00 74 1014.0
20260506134303 55 220 1.0 3.0 0.00 0.00 0.00 74 1014.1
20260506133802 55 217 1.0 3.0 0.00 0.00 0.00 75 1014.0
20260506133303 55 309 2.0 6.0 0.00 0.00 0.00 75 1014.1
20260506132306 55 165 1.0 5.0 0.00 0.00 0.00 76 1014.1
20260506131804 54 224 1.0 3.0 0.00 0.00 0.00 76 1014.1
20260506130804 54 144 1.0 6.0 0.00 0.00 0.00 77 1014.2
20260506130304 54 227 1.0 6.0 0.00 0.00 0.00 77 1014.2
20260506125305 53 174 2.0 6.0 0.00 0.00 0.00 77 1014.3
20260506124804 53 41 1.0 3.0 0.00 0.00 0.00 77 1014.3
20260506124304 53 181 2.0 6.0 0.00 0.00 0.00 76 1014.3
20260506123804 53 162 1.0 5.0 0.00 0.00 0.00 76 1014.2
20260506123303 53 163 0.0 2.0 0.00 0.00 0.00 76 1014.2
20260506122803 53 140 1.0 3.0 0.00 0.00 0.00 76 1014.2
20260506122306 53 349 0.0 1.0 0.00 0.00 0.00 76 1014.2
20260506121803 53 165 0.0 6.0 0.00 0.00 0.00 76 1014.2
20260506121303 53 146 0.0 2.0 0.00 0.00 0.00 75 1014.2
20260506120803 53 180 0.0 2.0 0.00 0.00 0.00 74 1014.3
20260506115804 53 189 1.0 3.0 0.00 0.00 0.00 74 1014.3
20260506115306 53 296 0.0 3.0 0.00 0.00 0.00 74 1014.3
20260506114803 53 179 1.0 5.0 0.00 0.00 0.00 73 1014.3
20260506114303 53 202 1.0 3.0 0.00 0.00 0.00 73 1014.3
20260506113805 53 251 0.0 3.0 0.00 0.00 0.00 75 1014.3
20260506113304 53 310 1.0 5.0 0.00 0.00 0.00 74 1014.2
20260506112804 53 332 2.0 3.0 0.00 0.00 0.00 73 1014.3
20260506112306 54 312 2.0 5.0 0.00 0.00 0.00 72 1014.2
20260506111804 54 309 2.0 6.0 0.00 0.00 0.00 72 1014.2
20260506111304 55 317 1.0 5.0 0.00 0.00 0.00 72 1014.2
20260506110804 55 325 1.0 3.0 0.00 0.00 0.00 72 1014.2
20260506110304 56 305 2.0 5.0 0.00 0.00 0.00 70 1014.2
20260506105805 56 317 0.0 1.0 0.00 0.00 0.00 67 1014.2
20260506105305 56 313 0.0 2.0 0.00 0.00 0.00 67 1014.1
20260506104804 56 337 0.0 2.0 0.00 0.00 0.00 68 1014.1
20260506103804 58 156 1.0 3.0 0.00 0.00 0.00 68 1014.1
20260506103304 58 151 1.0 3.0 0.00 0.00 0.00 69 1014.1
20260506102806 57 150 0.0 3.0 0.00 0.00 0.00 71 1014.1
20260506102305 56 117 0.0 3.0 0.00 0.00 0.00 73 1014.1
20260506101804 55 99 0.0 5.0 0.00 0.00 0.00 72 1014.1
20260506100804 56 90 2.0 6.0 0.00 0.00 0.00 72 1014.3
20260506100305 56 107 2.0 5.0 0.00 0.00 0.00 71 1014.3
20260506095306 56 98 1.0 5.0 0.00 0.00 0.00 72 1014.3
20260506094806 56 75 0.0 3.0 0.00 0.00 0.00 73 1014.3
20260506094305 55 114 1.0 3.0 0.00 0.00 0.00 74 1014.4
20260506093806 54 138 2.0 5.0 0.00 0.00 0.00 75 1014.4
20260506093305 54 141 2.0 5.0 0.00 0.00 0.00 73 1014.4
20260506091805 54 116 1.0 5.0 0.00 0.00 0.00 73 1014.4
20260506091307 54 154 0.0 2.0 0.00 0.00 0.00 73 1014.4
20260506090805 54 183 0.0 1.0 0.00 0.00 0.00 74 1014.4
20260506090305 53 184 1.0 2.0 0.00 0.00 0.00 75 1014.4
20260506085805 53 104 1.0 2.0 0.00 0.00 0.00 74 1014.5
20260506084806 53 271 0.0 1.0 0.00 0.00 0.00 78 1014.6
20260506084305 53 271 0.0 1.0 0.00 0.00 0.00 78 1014.5
20260506083807 52 116 0.0 0.0 0.00 0.00 0.00 79 1014.6
20260506082806 51 14 0.0 0.0 0.00 0.00 0.00 79 1014.6
20260506081807 51 54 0.0 1.0 0.00 0.00 0.00 82 1014.7
20260506081307 51 114 0.0 1.0 0.00 0.00 0.00 82 1014.7
20260506080806 51 115 0.0 1.0 0.00 0.00 0.00 83 1014.7
20260506080305 51 110 0.0 0.0 0.00 0.00 0.00 83 1014.7